TimeCDT,TemperatureF,Dew PointF,Humidity,Sea Level PressureIn,VisibilityMPH,Wind Direction,Wind SpeedMPH,Gust SpeedMPH,PrecipitationIn,Events,Conditions,WindDirDegrees,DateUTC
12:09 AM,64.4,62.6,94,30.05,5.0,NE,3.5,-,N/A,,Scattered Clouds,40,2013-08-12 05:09:00
12:22 AM,62.6,62.6,100,30.06,1.8,Calm,Calm,-,N/A,,Scattered Clouds,0,2013-08-12 05:22:00
12:33 AM,62.6,62.6,100,30.06,0.8,NNW,3.5,-,N/A,,Scattered Clouds,340,2013-08-12 05:33:00
12:44 AM,60.8,60.8,100,30.06,1.8,North,5.8,-,N/A,,Partly Cloudy,360,2013-08-12 05:44:00
12:46 AM,62.6,60.8,94,30.06,3.0,North,5.8,-,N/A,,Partly Cloudy,360,2013-08-12 05:46:00
12:53 AM,61.0,61.0,100,30.04,3.0,North,6.9,-,N/A,,Scattered Clouds,350,2013-08-12 05:53:00
12:57 AM,62.6,62.6,100,30.06,1.8,North,4.6,-,N/A,,Scattered Clouds,350,2013-08-12 05:57:00
1:07 AM,62.6,62.6,100,30.06,0.5,North,6.9,-,N/A,Fog,Fog,360,2013-08-12 06:07:00
1:18 AM,62.6,62.6,100,30.06,2.0,North,5.8,-,N/A,,Overcast,350,2013-08-12 06:18:00
1:26 AM,64.4,64.4,100,30.06,4.0,North,5.8,-,N/A,,Overcast,350,2013-08-12 06:26:00
1:53 AM,64.0,64.0,100,30.03,4.0,North,4.6,-,N/A,,Overcast,350,2013-08-12 06:53:00
2:34 AM,64.4,64.4,100,30.05,5.0,NNW,4.6,-,N/A,,Overcast,340,2013-08-12 07:34:00
2:53 AM,64.0,64.0,100,30.03,5.0,North,3.5,-,N/A,,Mostly Cloudy,350,2013-08-12 07:53:00
3:15 AM,62.6,62.6,100,30.05,1.8,Calm,Calm,-,N/A,,Partly Cloudy,0,2013-08-12 08:15:00
3:26 AM,62.6,62.6,100,30.04,0.5,North,4.6,-,N/A,Fog,Fog,10,2013-08-12 08:26:00
3:41 AM,60.8,60.8,100,30.05,0.2,Calm,Calm,-,N/A,Fog,Fog,0,2013-08-12 08:41:00
3:53 AM,60.1,60.1,100,30.03,0.2,Calm,Calm,-,N/A,Fog,Fog,0,2013-08-12 08:53:00
4:17 AM,60.8,60.8,100,30.04,0.2,Calm,Calm,-,N/A,Fog,Fog,0,2013-08-12 09:17:00
4:50 AM,59.0,59.0,100,30.04,0.2,NW,4.6,-,N/A,Fog,Fog,320,2013-08-12 09:50:00
4:53 AM,59.0,59.0,100,30.02,0.8,NW,5.8,-,N/A,,Mist,320,2013-08-12 09:53:00
4:58 AM,60.8,60.8,100,30.04,2.0,NW,3.5,-,N/A,,Scattered Clouds,320,2013-08-12 09:58:00
5:14 AM,59.0,59.0,100,30.04,1.0,Calm,Calm,-,N/A,,Mist,0,2013-08-12 10:14:00
5:19 AM,59.0,59.0,100,30.04,0.2,Calm,Calm,-,N/A,Fog,Fog,0,2013-08-12 10:19:00
5:28 AM,57.2,57.2,100,30.04,0.2,Calm,Calm,-,N/A,Fog,Fog,0,2013-08-12 10:28:00
5:38 AM,57.2,57.2,100,30.04,0.2,NW,3.5,-,N/A,Fog,Fog,320,2013-08-12 10:38:00
5:45 AM,57.2,57.2,100,30.04,0.5,NW,4.6,-,N/A,Fog,Fog,320,2013-08-12 10:45:00
5:51 AM,57.2,57.2,100,30.04,1.2,NW,4.6,-,N/A,,Scattered Clouds,320,2013-08-12 10:51:00
5:53 AM,57.9,57.9,100,30.02,1.2,NW,4.6,-,N/A,,Scattered Clouds,320,2013-08-12 10:53:00
6:03 AM,57.2,57.2,100,30.04,3.0,Calm,Calm,-,N/A,,Clear,0,2013-08-12 11:03:00
6:53 AM,59.0,59.0,100,30.02,6.0,WNW,4.6,-,N/A,,Clear,300,2013-08-12 11:53:00
7:53 AM,64.0,62.1,93,30.02,6.0,NW,6.9,-,N/A,,Clear,310,2013-08-12 12:53:00
8:53 AM,69.1,64.9,87,30.03,10.0,NW,6.9,-,N/A,,Clear,320,2013-08-12 13:53:00
9:53 AM,72.0,61.0,68,30.03,10.0,North,13.8,-,N/A,,Clear,350,2013-08-12 14:53:00
10:53 AM,73.9,57.9,57,30.04,10.0,NNW,15.0,-,N/A,,Clear,340,2013-08-12 15:53:00
11:53 AM,75.9,59.0,56,30.04,10.0,NNW,12.7,19.6,N/A,,Clear,340,2013-08-12 16:53:00
12:53 PM,75.9,57.9,54,30.04,10.0,NNW,16.1,-,N/A,,Clear,330,2013-08-12 17:53:00
1:53 PM,75.9,55.9,50,30.04,10.0,NNW,13.8,-,N/A,,Clear,330,2013-08-12 18:53:00
2:53 PM,77.0,57.0,50,30.02,10.0,NNW,12.7,-,N/A,,Clear,340,2013-08-12 19:53:00
3:53 PM,77.0,55.9,48,30.02,10.0,NNW,11.5,-,N/A,,Partly Cloudy,340,2013-08-12 20:53:00
4:53 PM,77.0,55.9,48,30.02,10.0,North,11.5,-,N/A,,Scattered Clouds,360,2013-08-12 21:53:00
5:53 PM,75.0,55.9,51,30.03,10.0,NNW,12.7,-,N/A,,Clear,340,2013-08-12 22:53:00
6:53 PM,72.0,57.0,59,30.03,10.0,North,9.2,-,N/A,,Clear,350,2013-08-12 23:53:00
7:53 PM,68.0,59.0,73,30.03,10.0,NNW,5.8,-,N/A,,Clear,330,2013-08-13 00:53:00
8:53 PM,64.0,57.9,80,30.04,10.0,NNW,4.6,-,N/A,,Clear,330,2013-08-13 01:53:00
9:53 PM,61.0,57.0,87,30.05,10.0,NW,4.6,-,N/A,,Clear,320,2013-08-13 02:53:00
10:53 PM,61.0,55.9,83,30.06,10.0,NW,5.8,-,N/A,,Clear,320,2013-08-13 03:53:00
11:53 PM,59.0,55.0,87,30.07,10.0,WNW,5.8,-,N/A,,Clear,290,2013-08-13 04:53:00